Year,Month,Day,Hour,Minute,Value (Times are PST for temperature in C)
2006,10,05,00,00,8.10
2006,10,05,00,01,8.10
2006,10,05,00,02,8.10
2006,10,05,00,03,8.10
2006,10,05,00,04,8.10
2006,10,05,00,05,8.00
2006,10,05,00,06,8.00
2006,10,05,00,07,8.00
2006,10,05,00,08,8.00
2006,10,05,00,09,8.00
2006,10,05,00,10,7.90
2006,10,05,00,11,7.90
2006,10,05,00,12,7.90
2006,10,05,00,13,7.80
2006,10,05,00,14,7.80
2006,10,05,00,15,7.80
2006,10,05,00,16,7.80
2006,10,05,00,17,7.80
2006,10,05,00,18,7.80
2006,10,05,00,19,7.80
2006,10,05,00,20,7.80
2006,10,05,00,21,7.80
2006,10,05,00,22,7.80
2006,10,05,00,23,7.80
2006,10,05,00,24,7.80
2006,10,05,00,25,7.80
2006,10,05,00,26,7.80
2006,10,05,00,27,7.90
2006,10,05,00,28,7.90
2006,10,05,00,29,7.80
2006,10,05,00,30,7.80
2006,10,05,00,31,7.80
2006,10,05,00,32,7.80
2006,10,05,00,33,7.80
2006,10,05,00,34,7.80
2006,10,05,00,35,7.80
2006,10,05,00,36,7.80
2006,10,05,00,37,7.80
2006,10,05,00,38,7.80
2006,10,05,00,39,7.80
2006,10,05,00,40,7.80
2006,10,05,00,41,7.70
2006,10,05,00,42,7.70
2006,10,05,00,43,7.70
2006,10,05,00,44,7.70
2006,10,05,00,45,7.70
2006,10,05,00,46,7.70
2006,10,05,00,47,7.70
2006,10,05,00,48,7.70
2006,10,05,00,49,7.60
2006,10,05,00,50,7.60
2006,10,05,00,51,7.60
2006,10,05,00,52,7.60
2006,10,05,00,53,7.50
2006,10,05,00,54,7.50
2006,10,05,00,55,7.50
2006,10,05,00,56,7.40
2006,10,05,00,57,7.40
2006,10,05,00,58,7.40
2006,10,05,00,59,7.30
2006,10,05,01,00,7.30
2006,10,05,01,01,7.30
2006,10,05,01,02,7.30
2006,10,05,01,03,7.30
2006,10,05,01,04,7.30
2006,10,05,01,05,7.30
2006,10,05,01,06,7.30
2006,10,05,01,07,7.30
2006,10,05,01,08,7.30
2006,10,05,01,09,7.30
2006,10,05,01,10,7.30
2006,10,05,01,11,7.30
2006,10,05,01,12,7.30
2006,10,05,01,13,7.30
2006,10,05,01,14,7.20
2006,10,05,01,15,7.20
2006,10,05,01,16,7.20
2006,10,05,01,17,7.20
2006,10,05,01,18,7.20
2006,10,05,01,19,7.10
2006,10,05,01,20,7.10
2006,10,05,01,21,7.10
2006,10,05,01,22,7.20
2006,10,05,01,23,7.20
2006,10,05,01,24,7.20
2006,10,05,01,25,7.20
2006,10,05,01,26,7.20
2006,10,05,01,27,7.30
2006,10,05,01,28,7.30
2006,10,05,01,29,7.30
2006,10,05,01,30,7.30
2006,10,05,01,31,7.30
2006,10,05,01,32,7.30
2006,10,05,01,33,7.30
2006,10,05,01,34,7.30
2006,10,05,01,35,7.30
2006,10,05,01,36,7.30
2006,10,05,01,37,7.30
2006,10,05,01,38,7.30
2006,10,05,01,39,7.30
2006,10,05,01,40,7.20
2006,10,05,01,41,7.20
2006,10,05,01,42,7.20
2006,10,05,01,43,7.20
2006,10,05,01,44,7.20
2006,10,05,01,45,7.20
2006,10,05,01,46,7.20
2006,10,05,01,47,7.20
2006,10,05,01,48,7.10
2006,10,05,01,49,7.10
2006,10,05,01,50,7.10
2006,10,05,01,51,7.10
2006,10,05,01,52,7.10
2006,10,05,01,53,7.10
2006,10,05,01,54,7.10
2006,10,05,01,55,7.10
2006,10,05,01,56,7.10
2006,10,05,01,57,7.10
2006,10,05,01,58,7.10
2006,10,05,01,59,7.10
2006,10,05,02,00,7.10
2006,10,05,02,01,7.20
2006,10,05,02,02,7.30
2006,10,05,02,03,7.50
2006,10,05,02,04,7.70
2006,10,05,02,05,7.80
2006,10,05,02,06,7.90
2006,10,05,02,07,7.90
2006,10,05,02,08,8.00
2006,10,05,02,09,8.20
2006,10,05,02,10,8.20
2006,10,05,02,11,8.20
2006,10,05,02,12,8.50
2006,10,05,02,13,8.60
2006,10,05,02,14,8.70
2006,10,05,02,15,8.70
2006,10,05,02,16,8.70
2006,10,05,02,17,8.60
2006,10,05,02,18,8.60
2006,10,05,02,19,8.60
2006,10,05,02,20,8.60
2006,10,05,02,21,8.50
2006,10,05,02,22,8.50
2006,10,05,02,23,8.50
2006,10,05,02,24,8.50
2006,10,05,02,25,8.50
2006,10,05,02,26,8.60
2006,10,05,02,27,8.60
2006,10,05,02,28,8.60
2006,10,05,02,29,8.70
2006,10,05,02,30,8.70
2006,10,05,02,31,8.70
2006,10,05,02,32,8.70
2006,10,05,02,33,8.80
2006,10,05,02,34,8.80
2006,10,05,02,35,8.80
2006,10,05,02,36,8.80
2006,10,05,02,37,8.80
2006,10,05,02,38,8.70
2006,10,05,02,39,8.70
2006,10,05,02,40,8.70
2006,10,05,02,41,8.60
2006,10,05,02,42,8.60
2006,10,05,02,43,8.60
2006,10,05,02,44,8.50
2006,10,05,02,45,8.50
2006,10,05,02,46,8.40
2006,10,05,02,47,8.40
2006,10,05,02,48,8.30
2006,10,05,02,49,8.30
2006,10,05,02,50,8.20
2006,10,05,02,51,8.20
2006,10,05,02,52,8.10
2006,10,05,02,53,8.10
2006,10,05,02,54,8.00
2006,10,05,02,55,7.90
2006,10,05,02,56,7.90
2006,10,05,02,57,7.90
2006,10,05,02,58,7.80
2006,10,05,02,59,7.80
2006,10,05,03,00,7.80
2006,10,05,03,01,7.70
2006,10,05,03,02,7.70
2006,10,05,03,03,7.60
2006,10,05,03,04,7.60
2006,10,05,03,05,7.60
2006,10,05,03,06,7.50
2006,10,05,03,07,7.50
2006,10,05,03,08,7.50
2006,10,05,03,09,7.40
2006,10,05,03,10,7.40
2006,10,05,03,11,7.40
2006,10,05,03,12,7.30
2006,10,05,03,13,7.30
2006,10,05,03,14,7.30
2006,10,05,03,15,7.30
2006,10,05,03,16,7.20
2006,10,05,03,17,7.20
2006,10,05,03,18,7.20
2006,10,05,03,19,7.10
2006,10,05,03,20,7.10
2006,10,05,03,21,7.00
2006,10,05,03,22,7.00
2006,10,05,03,23,7.00
2006,10,05,03,24,6.90
2006,10,05,03,25,6.90
2006,10,05,03,26,6.90
2006,10,05,03,27,6.80
2006,10,05,03,28,6.80
2006,10,05,03,29,6.80
2006,10,05,03,30,6.80
2006,10,05,03,31,6.80
2006,10,05,03,32,6.70
2006,10,05,03,33,6.70
2006,10,05,03,34,6.70
2006,10,05,03,35,6.60
2006,10,05,03,36,6.60
2006,10,05,03,37,6.60
2006,10,05,03,38,6.60
2006,10,05,03,39,6.60
2006,10,05,03,40,6.60
2006,10,05,03,41,6.60
2006,10,05,03,42,6.60
2006,10,05,03,43,6.60
2006,10,05,03,44,6.60
2006,10,05,03,45,6.60
2006,10,05,03,46,6.50
2006,10,05,03,47,6.40
2006,10,05,03,48,6.40
2006,10,05,03,49,6.40
2006,10,05,03,50,6.40
2006,10,05,03,51,6.40
2006,10,05,03,52,6.40
2006,10,05,03,53,6.40
2006,10,05,03,54,6.40
2006,10,05,03,55,6.40
2006,10,05,03,56,6.40
2006,10,05,03,57,6.40
2006,10,05,03,58,6.40
2006,10,05,03,59,6.40
2006,10,05,04,00,6.40
2006,10,05,04,01,6.30
2006,10,05,04,02,6.30
2006,10,05,04,03,6.30
2006,10,05,04,04,6.20
2006,10,05,04,05,6.20
2006,10,05,04,06,6.20
2006,10,05,04,07,6.20
2006,10,05,04,08,6.20
2006,10,05,04,09,6.20
2006,10,05,04,10,6.20
2006,10,05,04,11,6.20
2006,10,05,04,12,6.20
2006,10,05,04,13,6.20
2006,10,05,04,14,6.20
2006,10,05,04,15,6.20
2006,10,05,04,16,6.20
2006,10,05,04,17,6.20
2006,10,05,04,18,6.20
2006,10,05,04,19,6.20
2006,10,05,04,20,6.20
2006,10,05,04,21,6.20
2006,10,05,04,22,6.20
2006,10,05,04,23,6.20
2006,10,05,04,24,6.20
2006,10,05,04,25,6.20
2006,10,05,04,26,6.20
2006,10,05,04,27,6.20
2006,10,05,04,28,6.20
2006,10,05,04,29,6.20
2006,10,05,04,30,6.20
2006,10,05,04,31,6.20
2006,10,05,04,32,6.10
2006,10,05,04,33,6.10
2006,10,05,04,34,6.10
2006,10,05,04,35,6.10
2006,10,05,04,36,6.00
2006,10,05,04,37,6.00
2006,10,05,04,38,6.00
2006,10,05,04,39,6.00
2006,10,05,04,40,5.90
2006,10,05,04,41,5.90
2006,10,05,04,42,5.90
2006,10,05,04,43,5.80
2006,10,05,04,44,5.80
2006,10,05,04,45,5.80
2006,10,05,04,46,5.80
2006,10,05,04,47,5.80
2006,10,05,04,48,5.80
2006,10,05,04,49,5.70
2006,10,05,04,50,5.70
2006,10,05,04,51,5.70
2006,10,05,04,52,5.70
2006,10,05,04,53,5.70
2006,10,05,04,54,5.70
2006,10,05,04,55,5.70
2006,10,05,04,56,5.70
2006,10,05,04,57,5.70
2006,10,05,04,58,5.70
2006,10,05,04,59,5.70
2006,10,05,05,00,5.60
2006,10,05,05,01,5.60
2006,10,05,05,02,5.60
2006,10,05,05,03,5.60
2006,10,05,05,04,5.50
2006,10,05,05,05,5.50
2006,10,05,05,06,5.40
2006,10,05,05,07,5.40
2006,10,05,05,08,5.30
2006,10,05,05,09,5.30
2006,10,05,05,10,5.30
2006,10,05,05,11,5.30
2006,10,05,05,12,5.30
2006,10,05,05,13,5.30
2006,10,05,05,14,5.30
2006,10,05,05,15,5.20
2006,10,05,05,16,5.20
2006,10,05,05,17,5.20
2006,10,05,05,18,5.20
2006,10,05,05,19,5.20
2006,10,05,05,20,5.20
2006,10,05,05,21,5.10
2006,10,05,05,22,5.10
2006,10,05,05,23,5.10
2006,10,05,05,24,5.10
2006,10,05,05,25,5.10
2006,10,05,05,26,5.10
2006,10,05,05,27,5.10
2006,10,05,05,28,5.10
2006,10,05,05,29,5.10
2006,10,05,05,30,5.10
2006,10,05,05,31,5.10
2006,10,05,05,32,5.10
2006,10,05,05,33,5.10
2006,10,05,05,34,5.10
2006,10,05,05,35,5.10
2006,10,05,05,36,5.10
2006,10,05,05,37,5.10
2006,10,05,05,38,5.10
2006,10,05,05,39,5.10
2006,10,05,05,40,5.10
2006,10,05,05,41,5.10
2006,10,05,05,42,5.10
2006,10,05,05,43,5.10
2006,10,05,05,44,5.10
2006,10,05,05,45,5.10
2006,10,05,05,46,5.10
2006,10,05,05,47,5.10
2006,10,05,05,48,5.10
2006,10,05,05,49,5.20
2006,10,05,05,50,5.20
2006,10,05,05,51,5.20
2006,10,05,05,52,5.20
2006,10,05,05,53,5.20
2006,10,05,05,54,5.20
2006,10,05,05,55,5.20
2006,10,05,05,56,5.10
2006,10,05,05,57,5.10
2006,10,05,05,58,5.10
2006,10,05,05,59,5.10
2006,10,05,06,00,5.10
2006,10,05,06,01,5.10
2006,10,05,06,02,5.10
2006,10,05,06,03,5.10
2006,10,05,06,04,5.10
2006,10,05,06,05,5.10
2006,10,05,06,06,5.10
2006,10,05,06,07,5.00
2006,10,05,06,08,4.90
2006,10,05,06,09,4.90
2006,10,05,06,10,4.90
2006,10,05,06,11,4.90
2006,10,05,06,12,4.90
2006,10,05,06,13,4.90
2006,10,05,06,14,4.80
2006,10,05,06,15,4.80
2006,10,05,06,16,4.80
2006,10,05,06,17,4.80
2006,10,05,06,18,4.70
2006,10,05,06,19,4.70
2006,10,05,06,20,4.70
2006,10,05,06,21,4.70
2006,10,05,06,22,4.70
2006,10,05,06,23,4.70
2006,10,05,06,24,4.60
2006,10,05,06,25,4.60
2006,10,05,06,26,4.60
2006,10,05,06,27,4.60
2006,10,05,06,28,4.60
2006,10,05,06,29,4.60
2006,10,05,06,30,4.60
2006,10,05,06,31,4.60
2006,10,05,06,32,4.60
2006,10,05,06,33,4.60
2006,10,05,06,34,4.60
2006,10,05,06,35,4.60
2006,10,05,06,36,4.60
2006,10,05,06,37,4.60
2006,10,05,06,38,4.60
2006,10,05,06,39,4.60
2006,10,05,06,40,4.60
2006,10,05,06,41,4.60
2006,10,05,06,42,4.60
2006,10,05,06,43,4.60
2006,10,05,06,44,4.60
2006,10,05,06,45,4.60
2006,10,05,06,46,4.60
2006,10,05,06,47,4.60
2006,10,05,06,48,4.60
2006,10,05,06,49,4.60
2006,10,05,06,50,4.70
2006,10,05,06,51,4.70
2006,10,05,06,52,4.70
2006,10,05,06,53,4.70
2006,10,05,06,54,4.70
2006,10,05,06,55,4.70
2006,10,05,06,56,4.70
2006,10,05,06,57,4.70
2006,10,05,06,58,4.70
2006,10,05,06,59,4.70
2006,10,05,07,00,4.70
2006,10,05,07,01,4.70
2006,10,05,07,02,4.70
2006,10,05,07,03,4.70
2006,10,05,07,04,4.70
2006,10,05,07,05,4.70
2006,10,05,07,06,4.80
2006,10,05,07,07,4.80
2006,10,05,07,08,4.90
2006,10,05,07,09,4.90
2006,10,05,07,10,4.90
2006,10,05,07,11,4.90
2006,10,05,07,12,5.00
2006,10,05,07,13,5.10
2006,10,05,07,14,5.10
2006,10,05,07,15,5.10
2006,10,05,07,16,5.10
2006,10,05,07,17,5.20
2006,10,05,07,18,5.30
2006,10,05,07,19,5.30
2006,10,05,07,20,5.30
2006,10,05,07,21,5.30
2006,10,05,07,22,5.30
2006,10,05,07,23,5.30
2006,10,05,07,24,5.30
2006,10,05,07,25,5.40
2006,10,05,07,26,5.40
2006,10,05,07,27,5.40
2006,10,05,07,28,5.40
2006,10,05,07,29,5.40
2006,10,05,07,30,5.40
2006,10,05,07,31,5.40
2006,10,05,07,32,5.40
2006,10,05,07,33,5.40
2006,10,05,07,34,5.40
2006,10,05,07,35,5.40
2006,10,05,07,36,5.40
2006,10,05,07,37,5.40
2006,10,05,07,38,5.40
2006,10,05,07,39,5.40
2006,10,05,07,40,5.40
2006,10,05,07,41,5.40
2006,10,05,07,42,5.40
2006,10,05,07,43,5.40
2006,10,05,07,44,5.30
2006,10,05,07,45,5.30
2006,10,05,07,46,5.30
2006,10,05,07,47,5.30
2006,10,05,07,48,5.40
2006,10,05,07,49,5.40
2006,10,05,07,50,5.40
2006,10,05,07,51,5.40
2006,10,05,07,52,5.40
2006,10,05,07,53,5.50
2006,10,05,07,54,5.50
2006,10,05,07,55,5.50
2006,10,05,07,56,5.60
2006,10,05,07,57,5.60
2006,10,05,07,58,5.60
2006,10,05,07,59,5.70
2006,10,05,08,00,5.70
2006,10,05,08,01,5.70
2006,10,05,08,02,5.70
2006,10,05,08,03,5.80
2006,10,05,08,04,5.90
2006,10,05,08,05,5.90
2006,10,05,08,06,6.00
2006,10,05,08,07,6.00
2006,10,05,08,08,6.00
2006,10,05,08,09,6.10
2006,10,05,08,10,6.10
2006,10,05,08,11,6.20
2006,10,05,08,12,6.20
2006,10,05,08,13,6.20
2006,10,05,08,14,6.30
2006,10,05,08,15,6.30
2006,10,05,08,16,6.30
2006,10,05,08,17,6.40
2006,10,05,08,18,6.40
2006,10,05,08,19,6.50
2006,10,05,08,20,6.60
2006,10,05,08,21,6.60
2006,10,05,08,22,6.80
2006,10,05,08,23,6.90
2006,10,05,08,24,7.00
2006,10,05,08,25,7.10
2006,10,05,08,26,7.20
2006,10,05,08,27,7.20
2006,10,05,08,28,7.30
2006,10,05,08,29,7.30
2006,10,05,08,30,7.30
2006,10,05,08,31,7.40
2006,10,05,08,32,7.40
2006,10,05,08,33,7.40
2006,10,05,08,34,7.40
2006,10,05,08,35,7.50
2006,10,05,08,36,7.50
2006,10,05,08,37,7.60
2006,10,05,08,38,7.60
2006,10,05,08,39,7.70
2006,10,05,08,40,7.80
2006,10,05,08,41,7.80
2006,10,05,08,42,7.90
2006,10,05,08,43,8.00
2006,10,05,08,44,8.10
2006,10,05,08,45,8.20
2006,10,05,08,46,8.30
2006,10,05,08,47,8.40
2006,10,05,08,48,8.40
2006,10,05,08,49,8.50
2006,10,05,08,50,8.60
2006,10,05,08,51,8.70
2006,10,05,08,52,8.80
2006,10,05,08,53,8.90
2006,10,05,08,54,9.00
2006,10,05,08,55,9.00
2006,10,05,08,56,9.10
2006,10,05,08,57,9.20
2006,10,05,08,58,9.20
2006,10,05,08,59,9.30
2006,10,05,09,00,9.40
2006,10,05,09,01,9.50
2006,10,05,09,02,9.60
2006,10,05,09,03,9.70
2006,10,05,09,04,9.90
2006,10,05,09,05,10.10
2006,10,05,09,06,10.20
2006,10,05,09,07,10.40
2006,10,05,09,08,10.60
2006,10,05,09,09,10.80
2006,10,05,09,10,10.90
2006,10,05,09,11,11.00
2006,10,05,09,12,11.10
2006,10,05,09,13,11.30
2006,10,05,09,14,11.40
2006,10,05,09,15,11.40
2006,10,05,09,16,11.60
2006,10,05,09,17,11.60
2006,10,05,09,18,11.80
2006,10,05,09,19,11.80
2006,10,05,09,20,12.00
2006,10,05,09,21,12.00
2006,10,05,09,22,12.10
2006,10,05,09,23,12.20
2006,10,05,09,24,12.30
2006,10,05,09,25,12.30
2006,10,05,09,26,12.30
2006,10,05,09,27,12.40
2006,10,05,09,28,12.40
2006,10,05,09,29,12.40
2006,10,05,09,30,12.50
2006,10,05,09,31,12.50
2006,10,05,09,32,12.60
2006,10,05,09,33,12.60
2006,10,05,09,34,12.70
2006,10,05,09,35,12.80
2006,10,05,09,36,12.80
2006,10,05,09,37,12.90
2006,10,05,09,38,13.00
2006,10,05,09,39,13.10
2006,10,05,09,40,13.20
2006,10,05,09,41,13.20
2006,10,05,09,42,13.20
2006,10,05,09,43,13.30
2006,10,05,09,44,13.40
2006,10,05,09,45,13.40
2006,10,05,09,46,13.50
2006,10,05,09,47,13.60
2006,10,05,09,48,13.60
2006,10,05,09,49,13.70
2006,10,05,09,50,13.70
2006,10,05,09,51,13.80
2006,10,05,09,52,13.80
2006,10,05,09,53,13.90
2006,10,05,09,54,14.00
2006,10,05,09,55,14.00
2006,10,05,09,56,14.10
2006,10,05,09,57,14.20
2006,10,05,09,58,14.20
2006,10,05,09,59,14.30
2006,10,05,10,00,14.30
2006,10,05,10,01,14.30
2006,10,05,10,02,14.40
2006,10,05,10,03,14.40
2006,10,05,10,04,14.50
2006,10,05,10,05,14.50
2006,10,05,10,06,14.50
2006,10,05,10,07,14.50
2006,10,05,10,08,14.60
2006,10,05,10,09,14.60
2006,10,05,10,10,14.70
2006,10,05,10,11,14.70
2006,10,05,10,12,14.80
2006,10,05,10,13,14.80
2006,10,05,10,14,14.90
2006,10,05,10,15,15.00
2006,10,05,10,16,15.10
2006,10,05,10,17,15.10
2006,10,05,10,18,15.20
2006,10,05,10,19,15.20
2006,10,05,10,20,15.30
2006,10,05,10,21,15.40
2006,10,05,10,22,15.40
2006,10,05,10,23,15.40
2006,10,05,10,24,15.50
2006,10,05,10,25,15.50
2006,10,05,10,26,15.50
2006,10,05,10,27,15.50
2006,10,05,10,28,15.60
2006,10,05,10,29,15.70
2006,10,05,10,30,15.80
2006,10,05,10,31,15.80
2006,10,05,10,32,15.80
2006,10,05,10,33,15.80
2006,10,05,10,34,15.90
2006,10,05,10,35,15.90
2006,10,05,10,36,16.10
2006,10,05,10,37,16.10
2006,10,05,10,38,16.10
2006,10,05,10,39,16.20
2006,10,05,10,40,16.20
2006,10,05,10,41,16.30
2006,10,05,10,42,16.30
2006,10,05,10,43,16.30
2006,10,05,10,44,16.20
2006,10,05,10,45,16.20
2006,10,05,10,46,16.20
2006,10,05,10,47,16.10
2006,10,05,10,48,16.10
2006,10,05,10,49,16.20
2006,10,05,10,50,16.20
2006,10,05,10,51,16.20
2006,10,05,10,52,16.20
2006,10,05,10,53,16.10
2006,10,05,10,54,16.10
2006,10,05,10,55,16.10
2006,10,05,10,56,16.20
2006,10,05,10,57,16.20
2006,10,05,10,58,16.30
2006,10,05,10,59,16.30
2006,10,05,11,00,16.40
2006,10,05,11,01,16.40
2006,10,05,11,02,16.40
2006,10,05,11,03,16.40
2006,10,05,11,04,16.40
2006,10,05,11,05,16.40
2006,10,05,11,06,16.40
2006,10,05,11,07,16.40
2006,10,05,11,08,16.40
2006,10,05,11,09,16.40
2006,10,05,11,10,16.40
2006,10,05,11,11,16.40
2006,10,05,11,12,16.40
2006,10,05,11,13,16.40
2006,10,05,11,14,16.40
2006,10,05,11,15,16.50
2006,10,05,11,16,16.60
2006,10,05,11,17,16.60
2006,10,05,11,18,16.60
2006,10,05,11,19,16.70
2006,10,05,11,20,16.70
2006,10,05,11,21,16.60
2006,10,05,11,22,16.60
2006,10,05,11,23,16.60
2006,10,05,11,24,16.60
2006,10,05,11,25,16.40
2006,10,05,11,26,16.40
2006,10,05,11,27,16.40
2006,10,05,11,28,16.50
2006,10,05,11,29,16.60
2006,10,05,11,30,16.60
2006,10,05,11,31,16.60
2006,10,05,11,32,16.60
2006,10,05,11,33,16.60
2006,10,05,11,34,16.60
2006,10,05,11,35,16.60
2006,10,05,11,36,16.60
2006,10,05,11,37,16.60
2006,10,05,11,38,16.60
2006,10,05,11,39,16.60
2006,10,05,11,40,16.70
2006,10,05,11,41,16.70
2006,10,05,11,42,16.80
2006,10,05,11,43,16.80
2006,10,05,11,44,16.80
2006,10,05,11,45,16.80
2006,10,05,11,46,16.80
2006,10,05,11,47,16.70
2006,10,05,11,48,16.70
2006,10,05,11,49,16.70
2006,10,05,11,50,16.50
2006,10,05,11,51,16.40
2006,10,05,11,52,16.30
2006,10,05,11,53,16.20
2006,10,05,11,54,16.20
2006,10,05,11,55,16.10
2006,10,05,11,56,16.10
2006,10,05,11,57,16.20
2006,10,05,11,58,16.20
2006,10,05,11,59,16.20
2006,10,05,12,00,16.20
2006,10,05,12,01,16.20
2006,10,05,12,02,16.20
2006,10,05,12,03,16.20
2006,10,05,12,04,16.30
2006,10,05,12,05,16.30
2006,10,05,12,06,16.40
2006,10,05,12,07,16.40
2006,10,05,12,08,16.40
2006,10,05,12,09,16.40
2006,10,05,12,10,16.40
2006,10,05,12,11,16.40
2006,10,05,12,12,16.40
2006,10,05,12,13,16.40
2006,10,05,12,14,16.40
2006,10,05,12,15,16.40
2006,10,05,12,16,16.50
2006,10,05,12,17,16.60
2006,10,05,12,18,16.50
2006,10,05,12,19,16.40
2006,10,05,12,20,16.40
2006,10,05,12,21,16.40
2006,10,05,12,22,16.30
2006,10,05,12,23,16.30
2006,10,05,12,24,16.30
2006,10,05,12,25,16.40
2006,10,05,12,26,16.40
2006,10,05,12,27,16.40
2006,10,05,12,28,16.40
2006,10,05,12,29,16.50
2006,10,05,12,30,16.40
2006,10,05,12,31,16.40
2006,10,05,12,32,16.30
2006,10,05,12,33,16.30
2006,10,05,12,34,16.30
2006,10,05,12,35,16.30
2006,10,05,12,36,16.30
2006,10,05,12,37,16.30
2006,10,05,12,38,16.30
2006,10,05,12,39,16.40
2006,10,05,12,40,16.40
2006,10,05,12,41,16.40
2006,10,05,12,42,16.40
2006,10,05,12,43,16.40
2006,10,05,12,44,16.40
2006,10,05,12,45,16.30
2006,10,05,12,46,16.20
2006,10,05,12,47,16.10
2006,10,05,12,48,16.10
2006,10,05,12,49,16.10
2006,10,05,12,50,16.10
2006,10,05,12,51,16.10
2006,10,05,12,52,16.10
2006,10,05,12,53,16.10
2006,10,05,12,54,16.20
2006,10,05,12,55,16.30
2006,10,05,12,56,16.40
2006,10,05,12,57,16.40
2006,10,05,12,58,16.40
2006,10,05,12,59,16.40
2006,10,05,13,00,16.40
2006,10,05,13,01,16.40
2006,10,05,13,02,16.30
2006,10,05,13,03,16.20
2006,10,05,13,04,16.20
2006,10,05,13,05,16.20
2006,10,05,13,06,16.30
2006,10,05,13,07,16.30
2006,10,05,13,08,16.40
2006,10,05,13,09,16.50
2006,10,05,13,10,16.40
2006,10,05,13,11,16.40
2006,10,05,13,12,16.40
2006,10,05,13,13,16.50
2006,10,05,13,14,16.60
2006,10,05,13,15,16.70
2006,10,05,13,16,16.70
2006,10,05,13,17,16.70
2006,10,05,13,18,16.70
2006,10,05,13,19,16.70
2006,10,05,13,20,16.70
2006,10,05,13,21,16.70
2006,10,05,13,22,16.70
2006,10,05,13,23,16.70
2006,10,05,13,24,16.70
2006,10,05,13,25,16.80
2006,10,05,13,26,16.80
2006,10,05,13,27,16.80
2006,10,05,13,28,16.80
2006,10,05,13,29,16.90
2006,10,05,13,30,16.90
2006,10,05,13,31,16.90
2006,10,05,13,32,16.90
2006,10,05,13,33,16.90
2006,10,05,13,34,16.90
2006,10,05,13,35,16.90
2006,10,05,13,36,16.80
2006,10,05,13,37,16.70
2006,10,05,13,38,16.60
2006,10,05,13,39,16.50
2006,10,05,13,40,16.50
2006,10,05,13,41,16.60
2006,10,05,13,42,16.70
2006,10,05,13,43,16.70
2006,10,05,13,44,16.70
2006,10,05,13,45,16.70
2006,10,05,13,46,16.70
2006,10,05,13,47,16.80
2006,10,05,13,48,16.90
2006,10,05,13,49,17.00
2006,10,05,13,50,17.10
2006,10,05,13,51,17.20
2006,10,05,13,52,17.20
2006,10,05,13,53,17.30
2006,10,05,13,54,17.30
2006,10,05,13,55,17.30
2006,10,05,13,56,17.30
2006,10,05,13,57,17.30
2006,10,05,13,58,17.30
2006,10,05,13,59,17.40
2006,10,05,14,00,17.50
2006,10,05,14,01,17.60
2006,10,05,14,02,17.50
2006,10,05,14,03,17.50
2006,10,05,14,04,17.40
2006,10,05,14,05,17.40
2006,10,05,14,06,17.40
2006,10,05,14,07,17.30
2006,10,05,14,08,17.40
2006,10,05,14,09,17.40
2006,10,05,14,10,17.50
2006,10,05,14,11,17.50
2006,10,05,14,12,17.50
2006,10,05,14,13,17.50
2006,10,05,14,14,17.50
2006,10,05,14,15,17.50
2006,10,05,14,16,17.50
2006,10,05,14,17,17.50
2006,10,05,14,18,17.50
2006,10,05,14,19,17.60
2006,10,05,14,20,17.60
2006,10,05,14,21,17.60
2006,10,05,14,22,17.70
2006,10,05,14,23,17.80
2006,10,05,14,24,17.80
2006,10,05,14,25,17.90
2006,10,05,14,26,17.90
2006,10,05,14,27,18.00
2006,10,05,14,28,18.10
2006,10,05,14,29,18.20
2006,10,05,14,30,18.20
2006,10,05,14,31,18.30
2006,10,05,14,32,18.40
2006,10,05,14,33,18.40
2006,10,05,14,34,18.50
2006,10,05,14,35,18.50
2006,10,05,14,36,18.60
2006,10,05,14,37,18.60
2006,10,05,14,38,18.70
2006,10,05,14,39,18.60
2006,10,05,14,40,18.70
2006,10,05,14,41,18.70
2006,10,05,14,42,18.70
2006,10,05,14,43,18.60
2006,10,05,14,44,18.60
2006,10,05,14,45,18.50
2006,10,05,14,46,18.40
2006,10,05,14,47,18.30
2006,10,05,14,48,18.20
2006,10,05,14,49,18.10
2006,10,05,14,50,18.00
2006,10,05,14,51,17.90
2006,10,05,14,52,17.80
2006,10,05,14,53,17.70
2006,10,05,14,54,17.70
2006,10,05,14,55,17.60
2006,10,05,14,56,17.50
2006,10,05,14,57,17.40
2006,10,05,14,58,17.30
2006,10,05,14,59,17.30
2006,10,05,15,00,17.30
2006,10,05,15,01,17.30
2006,10,05,15,02,17.20
2006,10,05,15,03,17.20
2006,10,05,15,04,17.20
2006,10,05,15,05,17.30
2006,10,05,15,06,17.30
2006,10,05,15,07,17.40
2006,10,05,15,08,17.50
2006,10,05,15,09,17.50
2006,10,05,15,10,17.60
2006,10,05,15,11,17.60
2006,10,05,15,12,17.70
2006,10,05,15,13,17.70
2006,10,05,15,14,17.70
2006,10,05,15,15,17.70
2006,10,05,15,16,17.70
2006,10,05,15,17,17.60
2006,10,05,15,18,17.60
2006,10,05,15,19,17.60
2006,10,05,15,20,17.60
2006,10,05,15,21,17.60
2006,10,05,15,22,17.50
2006,10,05,15,23,17.50
2006,10,05,15,24,17.60
2006,10,05,15,25,17.60
2006,10,05,15,26,17.70
2006,10,05,15,27,17.70
2006,10,05,15,28,17.60
2006,10,05,15,29,17.50
2006,10,05,15,30,17.50
2006,10,05,15,31,17.40
2006,10,05,15,32,17.30
2006,10,05,15,33,17.30
2006,10,05,15,34,17.20
2006,10,05,15,35,17.20
2006,10,05,15,36,17.20
2006,10,05,15,37,17.20
2006,10,05,15,38,17.20
2006,10,05,15,39,17.20
2006,10,05,15,40,17.20
2006,10,05,15,41,17.20
2006,10,05,15,42,17.20
2006,10,05,15,43,17.30
2006,10,05,15,44,17.30
2006,10,05,15,45,17.30
2006,10,05,15,46,17.20
2006,10,05,15,47,17.20
2006,10,05,15,48,17.20
2006,10,05,15,49,17.20
2006,10,05,15,50,17.20
2006,10,05,15,51,17.20
2006,10,05,15,52,17.20
2006,10,05,15,53,17.20
2006,10,05,15,54,17.20
2006,10,05,15,55,17.20
2006,10,05,15,56,17.20
2006,10,05,15,57,17.20
2006,10,05,15,58,17.20
2006,10,05,15,59,17.10
2006,10,05,16,00,17.10
2006,10,05,16,01,17.10
2006,10,05,16,02,17.10
2006,10,05,16,03,17.10
2006,10,05,16,04,17.10
2006,10,05,16,05,17.10
2006,10,05,16,06,17.10
2006,10,05,16,07,17.10
2006,10,05,16,08,17.10
2006,10,05,16,09,17.10
2006,10,05,16,10,17.10
2006,10,05,16,11,17.10
2006,10,05,16,12,17.10
2006,10,05,16,13,17.10
2006,10,05,16,14,17.00
2006,10,05,16,15,17.00
2006,10,05,16,16,17.00
2006,10,05,16,17,17.00
2006,10,05,16,18,16.90
2006,10,05,16,19,16.90
2006,10,05,16,20,16.90
2006,10,05,16,21,16.90
2006,10,05,16,22,16.80
2006,10,05,16,23,16.80
2006,10,05,16,24,16.80
2006,10,05,16,25,16.80
2006,10,05,16,26,16.70
2006,10,05,16,27,16.60
2006,10,05,16,28,16.60
2006,10,05,16,29,16.50
2006,10,05,16,30,16.40
2006,10,05,16,31,16.40
2006,10,05,16,32,16.30
2006,10,05,16,33,16.30
2006,10,05,16,34,16.30
2006,10,05,16,35,16.20
2006,10,05,16,36,16.10
2006,10,05,16,37,16.10
2006,10,05,16,38,16.10
2006,10,05,16,39,16.10
2006,10,05,16,40,16.00
2006,10,05,16,41,15.90
2006,10,05,16,42,15.90
2006,10,05,16,43,15.80
2006,10,05,16,44,15.80
2006,10,05,16,45,15.90
2006,10,05,16,46,15.90
2006,10,05,16,47,15.80
2006,10,05,16,48,15.90
2006,10,05,16,49,15.80
2006,10,05,16,50,15.90
2006,10,05,16,51,15.90
2006,10,05,16,52,15.90
2006,10,05,16,53,15.90
2006,10,05,16,54,15.90
2006,10,05,16,55,15.90
2006,10,05,16,56,15.90
2006,10,05,16,57,15.90
2006,10,05,16,58,15.90
2006,10,05,16,59,15.90
2006,10,05,17,00,15.90
2006,10,05,17,01,15.90
2006,10,05,17,02,15.90
2006,10,05,17,03,15.90
2006,10,05,17,04,15.90
2006,10,05,17,05,15.90
2006,10,05,17,06,16.00
2006,10,05,17,07,16.10
2006,10,05,17,08,16.10
2006,10,05,17,09,16.10
2006,10,05,17,10,16.10
2006,10,05,17,11,16.10
2006,10,05,17,12,16.10
2006,10,05,17,13,16.10
2006,10,05,17,14,16.10
2006,10,05,17,15,16.10
2006,10,05,17,16,16.10
2006,10,05,17,17,16.10
2006,10,05,17,18,16.20
2006,10,05,17,19,16.10
2006,10,05,17,20,16.10
2006,10,05,17,21,16.10
2006,10,05,17,22,16.10
2006,10,05,17,23,16.10
2006,10,05,17,24,16.10
2006,10,05,17,25,16.10
2006,10,05,17,26,16.10
2006,10,05,17,27,16.10
2006,10,05,17,28,16.10
2006,10,05,17,29,16.10
2006,10,05,17,30,16.10
2006,10,05,17,31,16.10
2006,10,05,17,32,16.10
2006,10,05,17,33,16.00
2006,10,05,17,34,15.90
2006,10,05,17,35,15.90
2006,10,05,17,36,15.90
2006,10,05,17,37,15.80
2006,10,05,17,38,15.80
2006,10,05,17,39,15.80
2006,10,05,17,40,15.80
2006,10,05,17,41,15.80
2006,10,05,17,42,15.80
2006,10,05,17,43,15.80